Home   Weather   Worcester   Past weeks

Flag for United Kingdom Past Weather in Worcester, England, United Kingdom — Yesterday and Last 2 Weeks

Now
61 °F

Light rain. Partly sunny.


Feels Like: 61 °F
Forecast: 49 / 60 °F
Wind: 8 mph from Southwest

Location: Staverton Private

Current Time: Sep 29, 2016 at 7:56:42 AM

Latest Report: Sep 29, 2016 at 7:20 AM


Visibility: N/A

Pressure: 29.92 "Hg

Humidity: 94%

Dew Point: 59 °F

Location of WorcesterLocation

Past Weather in Worcester — Graph

°F

Worcester Temperature Yesterday

Maximum temperature yesterday: 68 °F (at 11:50 AM)
Minimum temperature yesterday: 57 °F (at 6:50 AM)
Average temperature yesterday: 64 °F

High & Low Weather Summary for the Past Weeks

 TemperatureHumidityPressure
High81 °F (Sep 14, 12:50 PM)100% (Sep 14, 6:50 AM)30.24 "Hg (Sep 14, 6:50 AM)
Low50 °F (Sep 23, 12:50 AM)46% (Sep 23, 1:50 PM)29.77 "Hg (Sep 13, 7:20 PM)
Average63 °F78%30.06 "Hg
* Reported Sep 13 7:20 PM — Sep 28 7:20 PM, Worcester, Weather by CustomWeather, © 2016

Note: Actual official high and low records may vary slightly from our data, if they occured in-between our weather recording intervals... More about our weather records

Advertising

Worcester Weather History for the Previous 24 Hours

Scroll right to see more
 ConditionsComfort  
Time TempWeatherWind HumidityBarometerVisibility
7:20 PM
Wed, Sep 28
66 °FPassing clouds.14 mph94%30.12 "Hg6 mi
6:50 PM66 °FPartly sunny.15 mph94%30.12 "Hg6 mi
6:20 PM64 °FPartly sunny.15 mph94%30.12 "Hg6 mi
5:50 PM66 °FScattered clouds.13 mph88%30.15 "Hg6 mi
5:20 PM66 °FScattered clouds.13 mph88%30.15 "Hg6 mi
4:50 PM66 °FScattered clouds.13 mph88%30.18 "Hg6 mi
4:20 PM64 °FPartly sunny.10 mph94%30.18 "Hg6 mi
3:50 PM66 °FPartly sunny.14 mph88%30.18 "HgN/A
3:20 PM66 °FScattered clouds.14 mph83%30.21 "HgN/A
2:50 PM66 °FPassing clouds.20 mph83%30.21 "HgN/A
2:20 PM66 °FPassing clouds.17 mph83%30.21 "HgN/A
1:50 PM66 °FPassing clouds.17 mph83%30.21 "HgN/A
1:20 PM68 °FPassing clouds.18 mph78%30.21 "HgN/A
12:50 PM68 °FPassing clouds.15 mph78%30.21 "HgN/A
12:20 PM66 °FPassing clouds.15 mph83%30.21 "HgN/A
11:50 AM68 °FPassing clouds.16 mph78%30.21 "HgN/A
11:20 AM66 °FPassing clouds.14 mph83%30.21 "HgN/A
10:50 AM64 °FPassing clouds.12 mph83%30.21 "HgN/A
10:20 AM64 °FPassing clouds.13 mph83%30.24 "HgN/A
9:50 AM63 °FSunny.9 mph88%30.24 "Hg10 mi
9:20 AM61 °FSunny.8 mph88%30.24 "Hg10 mi
8:50 AM59 °FPassing clouds.8 mph88%30.24 "HgN/A
8:20 AM59 °FPassing clouds.6 mph88%30.24 "HgN/A
7:50 AM57 °FPassing clouds.6 mph94%30.24 "HgN/A
7:20 AM57 °FPassing clouds.5 mph88%30.24 "HgN/A
Weather by CustomWeather, © 2016

See weather overviewHow to use our weather pages